Weather History for Limon, CO

Change the Weather History Date:

Tuesday, May 21, 2013

  Actual Average Record
Temperature  
Mean Temperature 51 °F -  
Max Temperature 67 °F - 91 °F (2005)
Min Temperature 35 °F - 28 °F (2003)
Degree Days  
Heating Degree Days 14    
Month to date heating degree days 275  
Cooling Degree Days 0    
Month to date cooling degree days 5  
Growing Degree Days 2 (Base 50)    
Moisture  
Dew Point 33 °F    
Average Humidity 55    
Maximum Humidity 86    
Minimum Humidity 24    
Precipitation  
Precipitation 0.00 in - 0.32 in (1997)
Month to date precipitation 1.87  
Year to date precipitation 4.37  
Sea Level Pressure  
Sea Level Pressure 29.89 in    
Wind  
Wind Speed 11 mph (North)    
Max Wind Speed 26 mph    
Max Gust Speed 39 mph    
Visibility 10 miles    
Events      
T = Trace of Precipitation, MM = Missing Value Source: NWS Daily Summary

Daily Weather History Graph

Daily Weather History Graph

Search for Another Location

Airport:

Trip Planner

Search our weather history database for the weather conditions in past years. The results will help you decide how hot, cold, wet, or windy it might be!

Date:

Astronomy

May. 21, 2013 Rise Set
Actual Time 5:36 AM MDT 8:06 PM MDT
Civil Twilight 5:05 AM MDT 8:37 PM MDT
Nautical Twilight 4:27 AM MDT 9:16 PM MDT
Astronomical Twilight 3:44 AM MDT 9:58 PM MDT
Moon 4:24 PM MDT (5/21) 3:03 AM MDT (5/21)
Length of Visible Light 15h 32m
Length of Day
14h 30m
Waxing Gibbous, 84% of the Moon is Illuminated
May 21
Waxing Gibbous
May 24
Full
May 31
Last Quarter
Jun 8
New
Jun 16
First Quarter

Hourly Weather History & Observations

Time (MDT) Temp. Windchill Dew Point Humidity Pressure Visibility Wind Dir Wind Speed Gust Speed Precip Events Conditions
12:55 AM 39.9 °F 34.5 °F 37.9 °F 93% 29.92 in 10.0 mi North 8.1 mph - N/A   Partly Cloudy
1:55 AM 41.0 °F 36.4 °F 37.9 °F 89% 29.93 in 10.0 mi NW 6.9 mph - N/A   Clear
2:55 AM 41.0 °F - 37.9 °F 89% 29.93 in 10.0 mi Calm Calm - N/A   Overcast
3:55 AM 41.0 °F 36.4 °F 37.0 °F 86% 29.94 in 10.0 mi NW 6.9 mph - N/A   Partly Cloudy
4:55 AM 39.9 °F 33.9 °F 36.0 °F 86% 29.96 in 10.0 mi WNW 9.2 mph - N/A   Mostly Cloudy
5:55 AM 42.1 °F 35.2 °F 34.0 °F 73% 29.96 in 10.0 mi NNW 12.7 mph - N/A   Clear
6:55 AM 45.0 °F 38.9 °F 35.1 °F 68% 29.97 in 10.0 mi North 12.7 mph - N/A   Clear
7:55 AM 48.0 °F - 35.1 °F 61% 29.98 in 10.0 mi NNW 12.7 mph - N/A   Clear
8:55 AM 52.0 °F - 35.1 °F 53% 29.95 in 10.0 mi NNW 21.9 mph 31.1 mph N/A   Clear
9:55 AM 55.0 °F - 33.1 °F 43% 29.93 in 10.0 mi NNW 18.4 mph 29.9 mph N/A   Clear
10:55 AM 57.9 °F - 32.0 °F 37% 29.89 in 10.0 mi NW 13.8 mph 25.3 mph N/A   Clear
11:55 AM 61.0 °F - 30.9 °F 32% 29.86 in 10.0 mi NNW 17.3 mph 25.3 mph N/A   Clear
12:55 PM 63.0 °F - 30.0 °F 29% 29.83 in 10.0 mi NNW 19.6 mph 27.6 mph N/A   Clear
1:55 PM 64.9 °F - 30.0 °F 27% 29.81 in 10.0 mi NNW 19.6 mph 35.7 mph N/A   Clear
2:55 PM 66.0 °F - 30.0 °F 26% 29.80 in 10.0 mi NNW 20.7 mph 31.1 mph N/A   Mostly Cloudy
3:55 PM 66.0 °F - 30.0 °F 26% 29.80 in 10.0 mi NNW 19.6 mph 34.5 mph N/A   Partly Cloudy
4:55 PM 64.9 °F - 28.9 °F 26% 29.79 in 10.0 mi North 16.1 mph 24.2 mph N/A   Clear
5:55 PM 64.9 °F - 28.0 °F 25% 29.78 in 10.0 mi North 15.0 mph 21.9 mph N/A   Clear
6:55 PM 64.0 °F - 27.0 °F 25% 29.79 in 10.0 mi North 16.1 mph 23.0 mph N/A   Clear
7:55 PM 57.9 °F - 28.9 °F 33% 29.83 in 10.0 mi ENE 4.6 mph - N/A   Scattered Clouds
8:55 PM 50.0 °F - 33.1 °F 52% 29.88 in 10.0 mi East 9.2 mph - N/A   Clear
9:55 PM 48.9 °F - 33.1 °F 54% 29.90 in 10.0 mi East 5.8 mph - N/A   Clear
10:55 PM 46.0 °F 44.8 °F 33.1 °F 61% 29.91 in 10.0 mi SSE 3.5 mph - N/A   Partly Cloudy
11:55 PM 41.0 °F - 33.1 °F 73% 29.91 in 10.0 mi Calm Calm - N/A   Partly Cloudy